Kichifukuyu — JD3914 — position and weather

sailwx.info

Track history (hours):
 
Tides and Currents Weather Stations Pressure Air Temp Water Temp Dewpoint Dewpoint Depression Visibility Wind Speed Wind Dir Waves Ship Positions

Kichifukuyu

Last reported at 2018-Jun-22 22:53 UTC. Time now 2018-Jun-23 10:07 UTC.
Position N 34°45' E 134°39'.

Length 68 m; draft 3 m.

Type: Cargo ship. MMSI: 431006848.

Date/timePositionNaut miles runAvg speedWind from/ knotsBaromVisibWave heightAir tempDewpointWater temp
2018-Jun-22 22:53N 34°45' E 134°39'0 0.7
2018-Jun-22 22:17N 34°45' E 134°38'0 0.0
2018-Jun-22 21:59N 34°45' E 134°38'0 0.0
2018-Jun-22 21:27N 34°45' E 134°38'0 0.0
2018-Jun-22 20:51N 34°45' E 134°38'0 0.0
2018-Jun-22 20:30N 34°45' E 134°38'0 0.0
2018-Jun-22 19:58N 34°45' E 134°38'0 0.0
2018-Jun-22 19:28N 34°45' E 134°38'0 0.0
2018-Jun-22 18:59N 34°45' E 134°38'0 0.0
2018-Jun-22 18:29N 34°45' E 134°38'0 0.0
2018-Jun-22 18:00N 34°45' E 134°38'0 0.0
2018-Jun-22 17:27N 34°45' E 134°38'0 0.0
2018-Jun-22 16:55N 34°45' E 134°38'0 0.0
2018-Jun-22 16:29N 34°45' E 134°38'2 4.9
2018-Jun-22 16:00N 34°44' E 134°36'612.4
2018-Jun-22 15:30N 34°42' E 134°28'612.4
2018-Jun-22 15:00N 34°39' E 134°22'20 0.6
2018-Jun-21 05:41N 34°41' E 134°45'213.0
2018-Jun-21 05:30N 34°40' E 134°48'713.5
2018-Jun-21 05:00N 34°37' E 134°55'612.6
2018-Jun-21 04:30N 34°37' E 135°03'612.2
2018-Jun-21 04:00N 34°37' E 135°10'612.4
2018-Jun-21 03:30N 34°38' E 135°18'611.5
2018-Jun-21 03:00N 34°39' E 135°24'1 2.2
2018-Jun-21 02:25N 34°40' E 135°25'0 0.0
2018-Jun-21 02:00N 34°40' E 135°25'0 0.0
2018-Jun-21 01:30N 34°40' E 135°25'0 0.0
2018-Jun-21 01:00N 34°40' E 135°25'0 0.0
2018-Jun-21 00:28N 34°40' E 135°25'0 0.0
2018-Jun-21 00:00N 34°40' E 135°25'0 0.1
2018-Jun-20 23:30N 34°40' E 135°25'0 0.1
2018-Jun-20 23:00N 34°40' E 135°25'0 0.1
2018-Jun-20 22:30N 34°40' E 135°25'0 0.0
2018-Jun-20 22:00N 34°40' E 135°25'0 0.1
2018-Jun-20 21:30N 34°40' E 135°25'0 0.1
2018-Jun-20 21:00N 34°40' E 135°25'0 0.0
2018-Jun-20 20:30N 34°40' E 135°25'0 0.0
2018-Jun-20 20:00N 34°40' E 135°25'0 0.0
2018-Jun-20 19:30N 34°40' E 135°25'0 0.0
2018-Jun-20 19:00N 34°40' E 135°25'0 0.0
2018-Jun-20 18:30N 34°40' E 135°25'0 0.0
2018-Jun-20 18:00N 34°40' E 135°25'0 0.0
2018-Jun-20 17:30N 34°40' E 135°25'0 0.0
2018-Jun-20 17:00N 34°40' E 135°25'0 0.0
2018-Jun-20 16:30N 34°40' E 135°25'0 0.0
2018-Jun-20 16:00N 34°40' E 135°25'0 0.0
2018-Jun-20 15:30N 34°40' E 135°25'0 0.0
2018-Jun-20 15:00N 34°40' E 135°25'0 0.0
2018-Jun-20 14:28N 34°40' E 135°25'0 0.0
2018-Jun-20 14:00N 34°40' E 135°25'0 0.0
2018-Jun-20 13:27N 34°40' E 135°25'0 0.0
2018-Jun-20 13:00N 34°40' E 135°25'0 0.0
2018-Jun-20 12:26N 34°40' E 135°25'0 0.0
2018-Jun-20 12:00N 34°40' E 135°25'0 0.0
2018-Jun-20 11:29N 34°40' E 135°25'0 0.0
2018-Jun-20 11:00N 34°40' E 135°25'0 0.1
2018-Jun-20 10:30N 34°40' E 135°25'0 0.0
2018-Jun-20 10:00N 34°40' E 135°25'0 0.0
2018-Jun-20 09:29N 34°40' E 135°25'0 0.0
2018-Jun-20 09:00N 34°40' E 135°25'0 0.1
2018-Jun-20 08:30N 34°40' E 135°25'0 0.0
2018-Jun-20 08:00N 34°40' E 135°25'0 0.0
2018-Jun-20 07:29N 34°40' E 135°25'0 0.0
2018-Jun-20 07:00N 34°40' E 135°25'0 0.0
2018-Jun-20 06:30N 34°40' E 135°25'0 0.0
2018-Jun-20 06:00N 34°40' E 135°25'0 0.0
2018-Jun-20 05:29N 34°40' E 135°25'0 0.0
2018-Jun-20 05:00N 34°40' E 135°25'0 0.0
2018-Jun-20 04:28N 34°40' E 135°25'0 0.0
2018-Jun-20 04:00N 34°40' E 135°25'0 0.0
2018-Jun-20 03:29N 34°40' E 135°25'0 0.0
2018-Jun-20 02:59N 34°40' E 135°25'0 0.0
2018-Jun-20 02:30N 34°40' E 135°25'0 0.0
2018-Jun-20 01:59N 34°40' E 135°25'0 0.0
2018-Jun-20 01:30N 34°40' E 135°25'0 0.0
2018-Jun-20 01:00N 34°40' E 135°25'0 0.0
2018-Jun-20 00:30N 34°40' E 135°25'0 0.0
2018-Jun-20 00:00N 34°40' E 135°25'2 3.1
2018-Jun-19 23:30N 34°40' E 135°24'3 6.4
2018-Jun-19 23:00N 34°41' E 135°20'0 0.0
2018-Jun-19 22:30N 34°41' E 135°20'0 0.0
2018-Jun-19 22:00N 34°41' E 135°20'0 0.0
2018-Jun-19 21:29N 34°41' E 135°20'0 0.0
2018-Jun-19 20:59N 34°41' E 135°20'0 0.0
2018-Jun-19 20:30N 34°41' E 135°20'0 0.0
2018-Jun-19 20:00N 34°41' E 135°20'0 0.0
2018-Jun-19 19:30N 34°41' E 135°20'0 0.0
2018-Jun-19 19:00N 34°41' E 135°20'0 0.0
2018-Jun-19 18:30N 34°41' E 135°20'0 0.0
2018-Jun-19 18:00N 34°41' E 135°20'0 0.0
2018-Jun-19 17:30N 34°41' E 135°20'0 0.0
2018-Jun-19 17:00N 34°41' E 135°20'0 0.1
2018-Jun-19 16:19N 34°41' E 135°20'0 0.0
2018-Jun-19 16:00N 34°41' E 135°20'0 0.0
2018-Jun-19 15:30N 34°41' E 135°20'0 0.0
2018-Jun-19 14:59N 34°41' E 135°20'0 0.1
2018-Jun-19 14:30N 34°41' E 135°20'0 0.1
2018-Jun-19 13:59N 34°41' E 135°20'0 0.0
2018-Jun-19 13:30N 34°41' E 135°20'0 0.0
2018-Jun-19 13:00N 34°41' E 135°20'0 0.0
2018-Jun-19 12:30N 34°41' E 135°20'0 0.0
2018-Jun-19 12:00N 34°41' E 135°20'0 0.0
2018-Jun-19 11:30N 34°41' E 135°20'0 0.0
2018-Jun-19 11:00N 34°41' E 135°20'0 0.0
2018-Jun-19 10:29N 34°41' E 135°20'0 0.0
2018-Jun-19 10:00N 34°41' E 135°20'0 0.0
2018-Jun-19 09:30N 34°41' E 135°20'0 0.0
2018-Jun-19 09:00N 34°41' E 135°20'0 0.0
2018-Jun-19 08:30N 34°41' E 135°20'0 0.0
2018-Jun-19 08:00N 34°41' E 135°20'0 0.0
2018-Jun-19 07:30N 34°41' E 135°20'0 0.0
2018-Jun-19 07:00N 34°41' E 135°20'0 0.0
2018-Jun-19 06:30N 34°41' E 135°20'0 0.0
2018-Jun-19 06:00N 34°41' E 135°20'0 0.0
2018-Jun-19 05:30N 34°41' E 135°20'0 0.0
2018-Jun-19 05:00N 34°41' E 135°20'3 5.5
2018-Jun-19 04:30N 34°39' E 135°18'611.2
2018-Jun-19 04:00N 34°37' E 135°12'611.9
2018-Jun-19 03:30N 34°35' E 135°05'7 9.6
2018-Jun-19 02:45N 34°37' E 134°57'310.3
2018-Jun-19 02:30N 34°38' E 134°54'16 1.8
2018-Jun-18 18:03N 34°47' E 134°38'3 1.3
2018-Jun-18 16:00N 34°45' E 134°36'711.7
2018-Jun-18 15:25N 34°42' E 134°29'9 0.2
2018-Jun-16 20:43N 34°47' E 134°38'0 0.0
2018-Jun-16 16:05N 34°47' E 134°38'0 0.0
2018-Jun-16 15:41N 34°47' E 134°38'0 0.0
2018-Jun-16 15:24N 34°47' E 134°38'0 0.0
2018-Jun-16 14:58N 34°47' E 134°38'0 0.0
2018-Jun-16 14:02N 34°47' E 134°38'0 2.6
2018-Jun-16 13:58N 34°47' E 134°38'10 0.3
2018-Jun-15 07:49N 34°40' E 134°47'610.4
2018-Jun-15 07:12N 34°37' E 134°54'311.7
2018-Jun-15 06:59N 34°38' E 134°57'4 9.3
2018-Jun-15 06:30N 34°37' E 135°02'5 9.5
2018-Jun-15 06:00N 34°37' E 135°08'612.2
2018-Jun-15 05:30N 34°38' E 135°15'4 7.7
2018-Jun-15 05:00N 34°42' E 135°17'0 0.0
2018-Jun-15 04:28N 34°42' E 135°17'0 0.0
2018-Jun-15 04:00N 34°42' E 135°17'0 0.0
2018-Jun-15 03:28N 34°42' E 135°17'0 0.0
2018-Jun-15 03:00N 34°42' E 135°17'0 0.0
2018-Jun-15 02:30N 34°42' E 135°17'0 0.0
2018-Jun-15 01:59N 34°42' E 135°17'0 0.0
2018-Jun-15 01:29N 34°42' E 135°17'0 0.0
2018-Jun-15 01:00N 34°42' E 135°17'0 0.0
2018-Jun-15 00:30N 34°42' E 135°17'0 0.0
2018-Jun-15 00:00N 34°42' E 135°17'0 0.1
2018-Jun-14 23:30N 34°41' E 135°17'1 2.7
2018-Jun-14 23:00N 34°41' E 135°19'0 0.0
2018-Jun-14 22:30N 34°41' E 135°19'0 0.0
2018-Jun-14 22:00N 34°41' E 135°19'0 0.0
2018-Jun-14 21:30N 34°41' E 135°19'0 0.0
2018-Jun-14 21:00N 34°41' E 135°19'0 0.0
2018-Jun-14 20:30N 34°41' E 135°19'0 0.0
2018-Jun-14 20:00N 34°41' E 135°19'0 0.0
2018-Jun-14 19:30N 34°41' E 135°19'0 0.0
2018-Jun-14 19:00N 34°41' E 135°19'0 0.0
2018-Jun-14 18:30N 34°41' E 135°19'0 0.0
2018-Jun-14 18:00N 34°41' E 135°19'0 0.0
2018-Jun-14 17:30N 34°41' E 135°19'2 4.9
2018-Jun-14 17:00N 34°39' E 135°17'611.6
2018-Jun-14 16:30N 34°36' E 135°11'611.7
2018-Jun-14 16:00N 34°35' E 135°04'712.4
2018-Jun-14 15:26N 34°37' E 134°56'613.1
2018-Jun-14 15:01N 34°39' E 134°50'11 0.7
2018-Jun-13 23:13N 34°45' E 134°38'0 0.2
2018-Jun-13 22:59N 34°45' E 134°38'0 0.0
2018-Jun-13 22:30N 34°45' E 134°38'0 0.0
2018-Jun-13 22:00N 34°45' E 134°38'0 0.0
2018-Jun-13 21:31N 34°45' E 134°38'0 0.0
2018-Jun-13 20:50N 34°45' E 134°38'0 0.0
2018-Jun-13 16:24N 34°45' E 134°38'0 0.0
2018-Jun-13 15:59N 34°45' E 134°38'0 0.0
2018-Jun-13 15:25N 34°45' E 134°38'0 0.0
2018-Jun-13 15:00N 34°45' E 134°38'0 0.0
2018-Jun-13 14:31N 34°45' E 134°38'0 0.0
2018-Jun-13 14:00N 34°45' E 134°38'0 0.0
2018-Jun-13 13:31N 34°45' E 134°38'0 0.0
2018-Jun-13 12:59N 34°45' E 134°38'0 0.0
2018-Jun-13 12:28N 34°45' E 134°38'0 0.0
2018-Jun-13 12:00N 34°45' E 134°38'0 0.0
2018-Jun-13 11:31N 34°45' E 134°38'0 0.0
2018-Jun-13 10:59N 34°45' E 134°38'0 0.0
2018-Jun-13 10:27N 34°45' E 134°38'0 0.0
2018-Jun-13 10:01N 34°45' E 134°38'7 7.1
2018-Jun-13 09:02N 34°41' E 134°45'112.7
2018-Jun-13 08:57N 34°41' E 134°46'713.9
2018-Jun-13 08:27N 34°37' E 134°54'612.7
2018-Jun-13 07:59N 34°37' E 135°01'611.6
2018-Jun-13 07:30N 34°36' E 135°08'611.9
2018-Jun-13 07:00N 34°35' E 135°15'611.6
2018-Jun-13 06:28N 34°32' E 135°22'2 3.0
2018-Jun-13 05:40N 34°31' E 135°24'0 0.0
2018-Jun-13 04:50N 34°31' E 135°24'0 0.0
2018-Jun-13 04:25N 34°31' E 135°24'0 0.0
2018-Jun-13 03:27N 34°31' E 135°24'0 0.0
2018-Jun-13 02:50N 34°31' E 135°24'0 0.0
2018-Jun-13 02:19N 34°31' E 135°24'0 0.0
2018-Jun-13 01:46N 34°31' E 135°24'0 0.0
2018-Jun-13 01:30N 34°31' E 135°24'0 0.0
2018-Jun-13 01:00N 34°31' E 135°24'0 0.0
2018-Jun-13 00:30N 34°31' E 135°24'0 0.0
2018-Jun-13 00:00N 34°31' E 135°24'0 0.0
2018-Jun-12 23:30N 34°31' E 135°24'0 0.0
2018-Jun-12 23:00N 34°31' E 135°24'  
Track history (hours):
 
Tides and Currents Weather Stations Pressure Air Temp Water Temp Dewpoint Dewpoint Depression Visibility Wind Speed Wind Dir Waves Ship Positions

Kichifukuyu

Last reported at 2018-Jun-22 22:53 UTC. Time now 2018-Jun-23 10:07 UTC.
Position N 34°45' E 134°39'.

Length 68 m; draft 3 m.

Type: Cargo ship. MMSI: 431006848.

Date/timePositionNaut miles runAvg speedWind from/ knotsBaromVisibWave heightAir tempDewpointWater temp
2018-Jun-22 22:53N 34°45' E 134°39'0 0.7
2018-Jun-22 22:17N 34°45' E 134°38'0 0.0
2018-Jun-22 21:59N 34°45' E 134°38'0 0.0
2018-Jun-22 21:27N 34°45' E 134°38'0 0.0
2018-Jun-22 20:51N 34°45' E 134°38'0 0.0
2018-Jun-22 20:30N 34°45' E 134°38'0 0.0
2018-Jun-22 19:58N 34°45' E 134°38'0 0.0
2018-Jun-22 19:28N 34°45' E 134°38'0 0.0
2018-Jun-22 18:59N 34°45' E 134°38'0 0.0
2018-Jun-22 18:29N 34°45' E 134°38'0 0.0
2018-Jun-22 18:00N 34°45' E 134°38'0 0.0
2018-Jun-22 17:27N 34°45' E 134°38'0 0.0
2018-Jun-22 16:55N 34°45' E 134°38'0 0.0
2018-Jun-22 16:29N 34°45' E 134°38'2 4.9
2018-Jun-22 16:00N 34°44' E 134°36'612.4
2018-Jun-22 15:30N 34°42' E 134°28'612.4
2018-Jun-22 15:00N 34°39' E 134°22'20 0.6
2018-Jun-21 05:41N 34°41' E 134°45'213.0
2018-Jun-21 05:30N 34°40' E 134°48'713.5
2018-Jun-21 05:00N 34°37' E 134°55'612.6
2018-Jun-21 04:30N 34°37' E 135°03'612.2
2018-Jun-21 04:00N 34°37' E 135°10'612.4
2018-Jun-21 03:30N 34°38' E 135°18'611.5
2018-Jun-21 03:00N 34°39' E 135°24'1 2.2
2018-Jun-21 02:25N 34°40' E 135°25'0 0.0
2018-Jun-21 02:00N 34°40' E 135°25'0 0.0
2018-Jun-21 01:30N 34°40' E 135°25'0 0.0
2018-Jun-21 01:00N 34°40' E 135°25'0 0.0
2018-Jun-21 00:28N 34°40' E 135°25'0 0.0
2018-Jun-21 00:00N 34°40' E 135°25'0 0.1
2018-Jun-20 23:30N 34°40' E 135°25'0 0.1
2018-Jun-20 23:00N 34°40' E 135°25'0 0.1
2018-Jun-20 22:30N 34°40' E 135°25'0 0.0
2018-Jun-20 22:00N 34°40' E 135°25'0 0.1
2018-Jun-20 21:30N 34°40' E 135°25'0 0.1
2018-Jun-20 21:00N 34°40' E 135°25'0 0.0
2018-Jun-20 20:30N 34°40' E 135°25'0 0.0
2018-Jun-20 20:00N 34°40' E 135°25'0 0.0
2018-Jun-20 19:30N 34°40' E 135°25'0 0.0
2018-Jun-20 19:00N 34°40' E 135°25'0 0.0
2018-Jun-20 18:30N 34°40' E 135°25'0 0.0
2018-Jun-20 18:00N 34°40' E 135°25'0 0.0
2018-Jun-20 17:30N 34°40' E 135°25'0 0.0
2018-Jun-20 17:00N 34°40' E 135°25'0 0.0
2018-Jun-20 16:30N 34°40' E 135°25'0 0.0
2018-Jun-20 16:00N 34°40' E 135°25'0 0.0
2018-Jun-20 15:30N 34°40' E 135°25'0 0.0
2018-Jun-20 15:00N 34°40' E 135°25'0 0.0
2018-Jun-20 14:28N 34°40' E 135°25'0 0.0
2018-Jun-20 14:00N 34°40' E 135°25'0 0.0
2018-Jun-20 13:27N 34°40' E 135°25'0 0.0
2018-Jun-20 13:00N 34°40' E 135°25'0 0.0
2018-Jun-20 12:26N 34°40' E 135°25'0 0.0
2018-Jun-20 12:00N 34°40' E 135°25'0 0.0
2018-Jun-20 11:29N 34°40' E 135°25'0 0.0
2018-Jun-20 11:00N 34°40' E 135°25'0 0.1
2018-Jun-20 10:30N 34°40' E 135°25'0 0.0
2018-Jun-20 10:00N 34°40' E 135°25'0 0.0
2018-Jun-20 09:29N 34°40' E 135°25'0 0.0
2018-Jun-20 09:00N 34°40' E 135°25'0 0.1
2018-Jun-20 08:30N 34°40' E 135°25'0 0.0
2018-Jun-20 08:00N 34°40' E 135°25'0 0.0
2018-Jun-20 07:29N 34°40' E 135°25'0 0.0
2018-Jun-20 07:00N 34°40' E 135°25'0 0.0
2018-Jun-20 06:30N 34°40' E 135°25'0 0.0
2018-Jun-20 06:00N 34°40' E 135°25'0 0.0
2018-Jun-20 05:29N 34°40' E 135°25'0 0.0
2018-Jun-20 05:00N 34°40' E 135°25'0 0.0
2018-Jun-20 04:28N 34°40' E 135°25'0 0.0
2018-Jun-20 04:00N 34°40' E 135°25'0 0.0
2018-Jun-20 03:29N 34°40' E 135°25'0 0.0
2018-Jun-20 02:59N 34°40' E 135°25'0 0.0
2018-Jun-20 02:30N 34°40' E 135°25'0 0.0
2018-Jun-20 01:59N 34°40' E 135°25'0 0.0
2018-Jun-20 01:30N 34°40' E 135°25'0 0.0
2018-Jun-20 01:00N 34°40' E 135°25'0 0.0
2018-Jun-20 00:30N 34°40' E 135°25'0 0.0
2018-Jun-20 00:00N 34°40' E 135°25'2 3.1
2018-Jun-19 23:30N 34°40' E 135°24'3 6.4
2018-Jun-19 23:00N 34°41' E 135°20'0 0.0
2018-Jun-19 22:30N 34°41' E 135°20'0 0.0
2018-Jun-19 22:00N 34°41' E 135°20'0 0.0
2018-Jun-19 21:29N 34°41' E 135°20'0 0.0
2018-Jun-19 20:59N 34°41' E 135°20'0 0.0
2018-Jun-19 20:30N 34°41' E 135°20'0 0.0
2018-Jun-19 20:00N 34°41' E 135°20'0 0.0
2018-Jun-19 19:30N 34°41' E 135°20'0 0.0
2018-Jun-19 19:00N 34°41' E 135°20'0 0.0
2018-Jun-19 18:30N 34°41' E 135°20'0 0.0
2018-Jun-19 18:00N 34°41' E 135°20'0 0.0
2018-Jun-19 17:30N 34°41' E 135°20'0 0.0
2018-Jun-19 17:00N 34°41' E 135°20'0 0.1
2018-Jun-19 16:19N 34°41' E 135°20'0 0.0
2018-Jun-19 16:00N 34°41' E 135°20'0 0.0
2018-Jun-19 15:30N 34°41' E 135°20'0 0.0
2018-Jun-19 14:59N 34°41' E 135°20'0 0.1
2018-Jun-19 14:30N 34°41' E 135°20'0 0.1
2018-Jun-19 13:59N 34°41' E 135°20'0 0.0
2018-Jun-19 13:30N 34°41' E 135°20'0 0.0
2018-Jun-19 13:00N 34°41' E 135°20'0 0.0
2018-Jun-19 12:30N 34°41' E 135°20'0 0.0
2018-Jun-19 12:00N 34°41' E 135°20'0 0.0
2018-Jun-19 11:30N 34°41' E 135°20'0 0.0
2018-Jun-19 11:00N 34°41' E 135°20'0 0.0
2018-Jun-19 10:29N 34°41' E 135°20'0 0.0
2018-Jun-19 10:00N 34°41' E 135°20'0 0.0
2018-Jun-19 09:30N 34°41' E 135°20'0 0.0
2018-Jun-19 09:00N 34°41' E 135°20'0 0.0
2018-Jun-19 08:30N 34°41' E 135°20'0 0.0
2018-Jun-19 08:00N 34°41' E 135°20'0 0.0
2018-Jun-19 07:30N 34°41' E 135°20'0 0.0
2018-Jun-19 07:00N 34°41' E 135°20'0 0.0
2018-Jun-19 06:30N 34°41' E 135°20'0 0.0
2018-Jun-19 06:00N 34°41' E 135°20'0 0.0
2018-Jun-19 05:30N 34°41' E 135°20'0 0.0
2018-Jun-19 05:00N 34°41' E 135°20'3 5.5
2018-Jun-19 04:30N 34°39' E 135°18'611.2
2018-Jun-19 04:00N 34°37' E 135°12'611.9
2018-Jun-19 03:30N 34°35' E 135°05'7 9.6
2018-Jun-19 02:45N 34°37' E 134°57'310.3
2018-Jun-19 02:30N 34°38' E 134°54'16 1.8
2018-Jun-18 18:03N 34°47' E 134°38'3 1.3
2018-Jun-18 16:00N 34°45' E 134°36'711.7
2018-Jun-18 15:25N 34°42' E 134°29'9 0.2
2018-Jun-16 20:43N 34°47' E 134°38'0 0.0
2018-Jun-16 16:05N 34°47' E 134°38'0 0.0
2018-Jun-16 15:41N 34°47' E 134°38'0 0.0
2018-Jun-16 15:24N 34°47' E 134°38'0 0.0
2018-Jun-16 14:58N 34°47' E 134°38'0 0.0
2018-Jun-16 14:02N 34°47' E 134°38'0 2.6
2018-Jun-16 13:58N 34°47' E 134°38'10 0.3
2018-Jun-15 07:49N 34°40' E 134°47'610.4
2018-Jun-15 07:12N 34°37' E 134°54'311.7
2018-Jun-15 06:59N 34°38' E 134°57'4 9.3
2018-Jun-15 06:30N 34°37' E 135°02'5 9.5
2018-Jun-15 06:00N 34°37' E 135°08'612.2
2018-Jun-15 05:30N 34°38' E 135°15'4 7.7
2018-Jun-15 05:00N 34°42' E 135°17'0 0.0
2018-Jun-15 04:28N 34°42' E 135°17'0 0.0
2018-Jun-15 04:00N 34°42' E 135°17'0 0.0
2018-Jun-15 03:28N 34°42' E 135°17'0 0.0
2018-Jun-15 03:00N 34°42' E 135°17'0 0.0
2018-Jun-15 02:30N 34°42' E 135°17'0 0.0
2018-Jun-15 01:59N 34°42' E 135°17'0 0.0
2018-Jun-15 01:29N 34°42' E 135°17'0 0.0
2018-Jun-15 01:00N 34°42' E 135°17'0 0.0
2018-Jun-15 00:30N 34°42' E 135°17'0 0.0
2018-Jun-15 00:00N 34°42' E 135°17'0 0.1
2018-Jun-14 23:30N 34°41' E 135°17'1 2.7
2018-Jun-14 23:00N 34°41' E 135°19'0 0.0
2018-Jun-14 22:30N 34°41' E 135°19'0 0.0
2018-Jun-14 22:00N 34°41' E 135°19'0 0.0
2018-Jun-14 21:30N 34°41' E 135°19'0 0.0
2018-Jun-14 21:00N 34°41' E 135°19'0 0.0
2018-Jun-14 20:30N 34°41' E 135°19'0 0.0
2018-Jun-14 20:00N 34°41' E 135°19'0 0.0
2018-Jun-14 19:30N 34°41' E 135°19'0 0.0
2018-Jun-14 19:00N 34°41' E 135°19'0 0.0
2018-Jun-14 18:30N 34°41' E 135°19'0 0.0
2018-Jun-14 18:00N 34°41' E 135°19'0 0.0
2018-Jun-14 17:30N 34°41' E 135°19'2 4.9
2018-Jun-14 17:00N 34°39' E 135°17'611.6
2018-Jun-14 16:30N 34°36' E 135°11'611.7
2018-Jun-14 16:00N 34°35' E 135°04'712.4
2018-Jun-14 15:26N 34°37' E 134°56'613.1
2018-Jun-14 15:01N 34°39' E 134°50'11 0.7
2018-Jun-13 23:13N 34°45' E 134°38'0 0.2
2018-Jun-13 22:59N 34°45' E 134°38'0 0.0
2018-Jun-13 22:30N 34°45' E 134°38'0 0.0
2018-Jun-13 22:00N 34°45' E 134°38'0 0.0
2018-Jun-13 21:31N 34°45' E 134°38'0 0.0
2018-Jun-13 20:50N 34°45' E 134°38'0 0.0
2018-Jun-13 16:24N 34°45' E 134°38'0 0.0
2018-Jun-13 15:59N 34°45' E 134°38'0 0.0
2018-Jun-13 15:25N 34°45' E 134°38'0 0.0
2018-Jun-13 15:00N 34°45' E 134°38'0 0.0
2018-Jun-13 14:31N 34°45' E 134°38'0 0.0
2018-Jun-13 14:00N 34°45' E 134°38'0 0.0
2018-Jun-13 13:31N 34°45' E 134°38'0 0.0
2018-Jun-13 12:59N 34°45' E 134°38'0 0.0
2018-Jun-13 12:28N 34°45' E 134°38'0 0.0
2018-Jun-13 12:00N 34°45' E 134°38'0 0.0
2018-Jun-13 11:31N 34°45' E 134°38'0 0.0
2018-Jun-13 10:59N 34°45' E 134°38'0 0.0
2018-Jun-13 10:27N 34°45' E 134°38'0 0.0
2018-Jun-13 10:01N 34°45' E 134°38'7 7.1
2018-Jun-13 09:02N 34°41' E 134°45'112.7
2018-Jun-13 08:57N 34°41' E 134°46'713.9
2018-Jun-13 08:27N 34°37' E 134°54'612.7
2018-Jun-13 07:59N 34°37' E 135°01'611.6
2018-Jun-13 07:30N 34°36' E 135°08'611.9
2018-Jun-13 07:00N 34°35' E 135°15'611.6
2018-Jun-13 06:28N 34°32' E 135°22'2 3.0
2018-Jun-13 05:40N 34°31' E 135°24'0 0.0
2018-Jun-13 04:50N 34°31' E 135°24'0 0.0
2018-Jun-13 04:25N 34°31' E 135°24'0 0.0
2018-Jun-13 03:27N 34°31' E 135°24'0 0.0
2018-Jun-13 02:50N 34°31' E 135°24'0 0.0
2018-Jun-13 02:19N 34°31' E 135°24'0 0.0
2018-Jun-13 01:46N 34°31' E 135°24'0 0.0
2018-Jun-13 01:30N 34°31' E 135°24'0 0.0
2018-Jun-13 01:00N 34°31' E 135°24'0 0.0
2018-Jun-13 00:30N 34°31' E 135°24'0 0.0
2018-Jun-13 00:00N 34°31' E 135°24'0 0.0
2018-Jun-12 23:30N 34°31' E 135°24'0 0.0
2018-Jun-12 23:00N 34°31' E 135°24'  

Dump ship's entire track history